Regional Weather Roundup
Issued by NWS

Home | Current Version | Previous Version | Text Only | Print | Product List | Glossary On
Versions: 1 2 3 4 5 6 7 8 9 10 11 12 13 14 15 16 17 18 19 20 21 22 23 24 25 26 27 28 29 30 31 32 33 34 35 36 37 38 39 40 41 42 43 44 45 46 47 48 49 50
587
ASUS43 KDTX 070901
RWRMI
MICHIGAN HOURLY REGIONAL WEATHER ROUNDUP
NATIONAL WEATHER SERVICE DETROIT/PONTIAC MI
400 AM EST WED DEC 07 2016

NOTE: "FAIR" INDICATES FEW OR NO CLOUDS BELOW 12,000 FEET WITH NO
SIGNIFICANT WEATHER AND/OR OBSTRUCTION TO VISIBILITY.

MIZ047>049-052>055-059>063-066>070-074>076-081>083-071000-
SOUTHEAST LOWER MICHIGAN

CITY           SKY/WX    TMP DP  RH WIND       PRES   REMARKS
ADRIAN         MOCLDY    30  24  78 W13       29.97R WCI  20
ALMA           CLOUDY    31  22  69 W13       29.89S WCI  22
ANN ARBOR      PTCLDY    30  24  78 SW13      29.93R WCI  20
BAD AXE        PTCLDY    31  22  70 W18G26    29.84R WCI  19
CARO           CLOUDY    31  24  76 W13       29.86R WCI  21
DETROIT CITY   PTCLDY    32  25  75 W13G18    29.93R WCI  22
DETROIT        MOCLDY    32  24  72 SW12      29.94S WCI  23
FLINT          CLOUDY    31  24  75 W10       29.90R WCI  22
GROSSE ILE     PTCLDY    32  26  78 W7        29.94R WCI  26
HILLSDALE      CLOUDY    30  21  69 W17G23    29.93S WCI  18
HOWELL         CLOUDY    32  24  73 W10       29.91R WCI  23

CITY           SKY/WX    TMP DP  RH WIND       PRES   REMARKS
JACKSON        CLOUDY    31  21  66 W10       29.93R WCI  22
LAMBERTVILLE   MOCLDY    32  26  78 SW9       29.97S WCI  24
LANSING        CLOUDY    32  21  64 W13       29.91S WCI  22
LAPEER         NOT AVBL
MASON          CLOUDY    32  25  75 W12G18    29.91S WCI  23
MONROE         CLOUDY    31  28  85 W10       29.95R WCI  23
MT. CLEMENS    PTCLDY    32  25  74 W9        29.89R WCI  24
PONTIAC        CLOUDY    32  23  69 W15       29.89R WCI  22
PORT HOPE        N/A     33  22  63 W10G21    29.80R WCI  25
PORT HURON     PTCLDY    32  27  80 W8        29.90R WCI  25
TRI CITIES     CLOUDY    31  23  72 W13G24    29.87R WCI  21
MIDLAND        CLOUDY    32  20  60 W12G20    29.86R WCI  23
TROY           PTCLDY    33  25  72 W8G20     29.93R WCI  26
SAGINAW HB     CLOUDY    32  23  69 W13       29.87S WCI  22
$$
MIZ043>046-050>051-056>058-064>065-071>073-077>080-071000-
SOUTHWEST LOWER MICHIGAN

CITY           SKY/WX    TMP DP  RH WIND       PRES   REMARKS
BATTLE CREEK   CLOUDY    31  23  72 SW17G25   29.93S WCI  19
BENTON HARBOR  MOCLDY    31  21  66 W22G33    29.99R WCI  18
BIG RAPIDS     CLOUDY    31  20  64 W17G23    29.84S WCI  19
COLDWATER      CLOUDY    31  23  73 W16       29.96R WCI  20
FREMONT        CLOUDY    31  18  60 W12G18    29.88S WCI  21
HOLLAND        CLOUDY    33  24  69 W17G26    29.93R WCI  22
GRAND RAPIDS   CLOUDY    32  22  66 W17G25    29.91S WCI  21
IONIA          CLOUDY    31  23  72 W12G22    29.89S WCI  22
KALAMAZOO      CLOUDY    31  21  66 W22G29    29.95R WCI  18
LUDINGTON      CLOUDY    30  22  71 W9G17     29.85F WCI  22
MARSHALL       CLOUDY    31  23  72 W15       29.93S WCI  20
MOUNT PLEASANT CLOUDY    31  21  66 W13G23    29.86R WCI  21
MUSKEGON       CLOUDY    32  22  66 W18G24    29.91S WCI  20
SOUTH HAVEN    MOCLDY    32  24  71 W16G25    29.97R WCI  21
$$
MIZ016>042-071000-
NORTHERN LOWER MICHIGAN

CITY           SKY/WX    TMP DP  RH WIND       PRES   REMARKS
ALPENA         CLOUDY    31  19  61 W9G22     29.77R WCI  23
BEAVER ISLAND  CLOUDY    30  23  74 SW22G32   29.73S WCI  17
BELLAIRE       CLOUDY    31  22  69 SW7       29.79S WCI  24
CADILLAC       CLOUDY    27  19  72 W15G26    29.79S WCI  15
CHARLEVOIX     CLOUDY    31  22  69 W17G30    29.78S WCI  20
FRANKFORT      CLOUDY    31  22  72 W12G23    29.82S WCI  21
GAYLORD        CLOUDY    28  19  69 SW20      29.73S WCI  15
GRAYLING       CLOUDY    29  21  71 W9G18     29.78S WCI  20
HARBOR SPRINGS CLOUDY    32  24  72 SW18G32   29.74R WCI  20
HOUGHTON LAKE  CLOUDY    28  19  69 W18G26    29.80S WCI  15
MANISTEE       CLOUDY    30  21  69 W12G22    29.84S WCI  20
OSCODA         MOCLDY    32  20  61 MISG      29.79R
PELLSTON       CLOUDY    32  22  66 SW12G31   29.72S WCI  23
ROGERS CITY    CLOUDY    32  22  67 SW14G20   29.76R WCI  22
TRAVERSE CITY  CLOUDY    31  20  63 SW13G21   29.79R WCI  21
$$
MIZ007>008-015-071000-
EASTERN UPPER MICHIGAN

CITY           SKY/WX    TMP DP  RH WIND       PRES   REMARKS
MACKINAC ISLAN CLOUDY    31  24  74 W14G30    29.70S WCI  21
NEWBERRY       CLOUDY    26  19  74 SW16G23   29.68F WCI  13
S. S. MARIE    CLOUDY    29  19  66 W20G26    29.69R WCI  16
MUNISING         N/A     27  16  63 SW10G18   29.68S WCI  17
$$
MIZ004>006-011>014-085-071000-
CENTRAL UPPER MICHIGAN

CITY           SKY/WX    TMP DP  RH WIND       PRES   REMARKS
MANISTIQUE     CLOUDY    27  15  59 W8G21     29.71S WCI  19
ESCANABA       CLOUDY    27  17  66 SW15G21   29.73R WCI  15
MENOMINEE      CLOUDY    26  16  65 W14G23    29.77S WCI  14
SAWYER-GWINN   CLOUDY    24  16  71 SW16G22   29.65S WCI  10
$$
MIZ001>003-009>011-084-071000-
WESTERN UPPER MICHIGAN

CITY           SKY/WX    TMP DP  RH WIND       PRES   REMARKS
IRON MOUNTAIN  CLOUDY    22  12  65 W16G26    29.68R WCI   8
HOUGHTON       LGT SNOW  23  14  68 SW17G28   29.58R WCI   9
COPPER HARBOR    N/A     26  17  68 W10G18    29.58F WCI  16
IRONWOOD       FLURRIES  19  14  81 SW21G29   29.64R WCI   3
$$

ABBREVIATIONS USED IN REMARKS
   TC - TEMPERATURE IN CELSIUS
  WCI - WIND CHILL INDEX
   HX - HEAT INDEX
  VSB - VISIBILITY





USA.gov is the U.S. government's official web portal to all federal, state and local government web resources and services.